FLOCK 4H 10

导读

FLOCK 4H 10是美国Planet公司研制的光学遥感微纳卫星,隶属于Dove“鸽群”星座,于2025年11月28日由美国发射入轨。作为3U立方体卫星,单星重量约5kg,配备高倍率光学成像设备,可提供米级分辨率对地观测数据。它将加入现有星座组网,维持每日全球覆盖能力,为农业监测、城市规划、灾害评估等领域提供高频次遥感信息支撑。

基本信息
目录编号:
66713
目录名称:
FLOCK 4H 10
国际标识:
2025-276AZ
轨道中心:
EARTH
卫星名称:
FLOCK 4H 10
卫星全名:
FLOCK 4H 10
卫星状态:
在轨 (已飞行288 天)
发射日期:
2025-11-28 UTC
国别 :
美国 (US)
星等 :
--
该卫星已列入 空间交会检测服务 Space Conjunction Data Service (SCDS) ,当前飞行风险评估等级: 无高风险
轨道信息
数据来源 国际轨道数据
星历时间: 2026-09-12T11:53:32+0800
7小时前
查看轨道信息
半长轴: 6881.607km
偏心率: 0.0005788
轨道倾角: 97.413°
近地点辐角 69.599°
升交点赤经 327.220°
平近点角 290.586°
近地点: 499.486km
远地点: 507.454km
周期: 94.688分钟
每日圈数: 15.207858
详细信息
使用方式:
暂无
2D轨道图
3D轨道图
轨道高度分析图
轨道倾角分析图
轨道综合分析图
查看轨道综合分析图
与全量物体交会距离演化趋势
与全量物体交会风险概率演化趋势